Regional Weather Roundup
Issued by NWS Tiyan, Guam

Home | Current Version | Previous Version | Text Only | Print | Product List | Glossary On
Versions: 1 2 3 4 5 6 7 8 9 10 11 12 13 14 15 16 17 18 19 20 21 22 23 24 25 26 27 28 29 30 31 32 33 34 35 36 37 38 39 40 41 42 43 44 45 46 47
000
ASGM40 PGUM 222112
RWRGUM
WEATHER ROUNDUP FOR THE MARIANAS
NATIONAL WEATHER SERVICE TIYAN GU
700 AM CHST WED JUL 23 2014

GUZ001>004-222200-
MARIANA ISLANDS-

CITY           SKY/WX    TMP DP  RH WIND       PRES   REMARKS
GUAM AIRPORT   MOSUNNY   81  77  89 N8        29.83R
ANDERSEN AFB   MOSUNNY   81  77  89 E7        29.82R
ROTA AIRPORT   LGT RAIN  81  77  89 E7        29.82R
TINIAN AP      MOSUNNY   79  75  89 E6        29.79S
SAIPAN AP      MOSUNNY   82  79  89 E8        29.81R HX  93

$$



USA.gov is the U.S. government's official web portal to all federal, state and local government web resources and services.